Weather History for Casa Grande, AZ

Change the Weather History Date:

Saturday, March 9, 2013

  Actual Average Record
Temperature  
Mean Temperature 48 °F -  
Max Temperature 55 °F 71 °F 89 °F (2004)
Min Temperature 41 °F 43 °F 33 °F (1998)
Degree Days  
Heating Degree Days 17    
Moisture  
Dew Point 39 °F    
Average Humidity 70    
Maximum Humidity 87    
Minimum Humidity 51    
Precipitation  
Precipitation 0.03 in - - ()
Sea Level Pressure  
Sea Level Pressure 30.04 in    
Wind  
Wind Speed 3 mph (West)    
Max Wind Speed 12 mph    
Max Gust Speed 16 mph    
Visibility 10 miles    
Events      
Averages and records for this station are not official NWS values.
T = Trace of Precipitation, MM = Missing Value Source: NWS Daily Summary

Daily Weather History Graph

Daily Weather History Graph

Search for Another Location

Airport:

Trip Planner

Search our weather history database for the weather conditions in past years. The results will help you decide how hot, cold, wet, or windy it might be!

Date:

Astronomy

Mar. 09, 2013 Rise Set
Actual Time 6:44 AM MST 6:30 PM MST
Civil Twilight 6:20 AM MST 6:55 PM MST
Nautical Twilight 5:51 AM MST 7:24 PM MST
Astronomical Twilight 5:22 AM MST 7:52 PM MST
Moon 5:05 AM MST (3/9) 4:40 PM MST (3/9)
Length of Visible Light 12h 35m
Length of Day
11h 46m
Waning Crescent, 5% of the Moon is Illuminated
Mar 9
Waning Crescent
Mar 11
New
Mar 19
First Quarter
Mar 27
Full
Apr 2
Last Quarter

Hourly Weather History & Observations

Time (MST) Temp. Windchill Dew Point Humidity Pressure Visibility Wind Dir Wind Speed Gust Speed Precip Events Conditions
12:15 AM 46.4 °F - 41.0 °F 81% 29.98 in 10.0 mi Calm Calm - N/A   Overcast
12:35 AM 48.2 °F - 41.0 °F 76% 29.99 in 10.0 mi Calm Calm - N/A   Overcast
12:55 AM 46.4 °F - 39.2 °F 76% 29.99 in 10.0 mi Calm Calm - N/A   Overcast
1:15 AM 46.4 °F - 39.2 °F 76% 29.99 in 10.0 mi Calm Calm - N/A   Scattered Clouds
1:35 AM 46.4 °F - 39.2 °F 76% 29.98 in 10.0 mi Calm Calm - N/A   Clear
1:55 AM 46.4 °F 45.2 °F 39.2 °F 76% 29.98 in 10.0 mi SW 3.5 mph - N/A   Clear
2:15 AM 44.6 °F 42.2 °F 39.2 °F 81% 29.98 in 10.0 mi SSW 4.6 mph - N/A   Clear
2:35 AM 44.6 °F 40.7 °F 37.4 °F 76% 29.98 in 10.0 mi SSW 6.9 mph - N/A   Partly Cloudy
2:55 AM 44.6 °F 42.2 °F 37.4 °F 76% 29.98 in 10.0 mi SSW 4.6 mph - N/A   Partly Cloudy
3:15 AM 44.6 °F 42.2 °F 37.4 °F 76% 29.98 in 10.0 mi SSW 4.6 mph - N/A   Clear
3:35 AM 44.6 °F - 37.4 °F 76% 29.98 in 10.0 mi Calm Calm - N/A   Clear
3:55 AM 42.8 °F - 37.4 °F 81% 29.98 in 10.0 mi Calm Calm - N/A   Scattered Clouds
4:15 AM 42.8 °F - 37.4 °F 81% 29.98 in 10.0 mi Calm Calm - N/A   Partly Cloudy
4:35 AM 42.8 °F - 35.6 °F 76% 29.98 in 10.0 mi Calm Calm - N/A   Clear
4:55 AM 42.8 °F 40.1 °F 35.6 °F 76% 29.99 in 10.0 mi South 4.6 mph - N/A   Clear
5:15 AM 42.8 °F - 37.4 °F 81% 29.99 in 10.0 mi Calm Calm - N/A   Clear
5:35 AM 42.8 °F 41.1 °F 35.6 °F 76% 29.99 in 10.0 mi SSE 3.5 mph - N/A   Scattered Clouds
5:55 AM 42.8 °F - 35.6 °F 76% 30.00 in 10.0 mi Calm Calm - N/A   Mostly Cloudy
6:15 AM 41.0 °F - 37.4 °F 87% 30.01 in 10.0 mi Calm Calm - N/A   Partly Cloudy
6:35 AM 42.8 °F - 35.6 °F 76% 30.01 in 10.0 mi Calm Calm - N/A   Clear
6:55 AM 42.8 °F - 35.6 °F 76% 30.01 in 10.0 mi Calm Calm - N/A   Clear
7:15 AM 42.8 °F - 35.6 °F 76% 30.02 in 10.0 mi Calm Calm - N/A   Mostly Cloudy
7:35 AM 42.8 °F - 37.4 °F 81% 30.02 in 10.0 mi Calm Calm - N/A   Overcast
7:55 AM 44.6 °F - 37.4 °F 76% 30.02 in 10.0 mi Calm Calm - N/A   Overcast
8:15 AM 44.6 °F 42.2 °F 37.4 °F 76% 30.04 in 10.0 mi SW 4.6 mph - N/A   Overcast
8:35 AM 44.6 °F 43.1 °F 37.4 °F 76% 30.04 in 10.0 mi SSW 3.5 mph - N/A   Mostly Cloudy
8:55 AM 44.6 °F 40.7 °F 39.2 °F 81% 30.05 in 10.0 mi SSW 6.9 mph - N/A   Mostly Cloudy
9:15 AM 46.4 °F 42.9 °F 39.2 °F 76% 30.05 in 10.0 mi SSW 6.9 mph - N/A   Mostly Cloudy
9:35 AM 48.2 °F - 39.2 °F 71% 30.06 in 10.0 mi SSW 9.2 mph - N/A   Mostly Cloudy
9:55 AM 48.2 °F - 41.0 °F 76% 30.06 in 10.0 mi SSW 6.9 mph - N/A   Mostly Cloudy
10:15 AM 50.0 °F - 37.4 °F 62% 30.06 in 10.0 mi SW 11.5 mph - N/A   Mostly Cloudy
10:35 AM 51.8 °F - 35.6 °F 54% 30.07 in 10.0 mi WSW 9.2 mph - N/A   Overcast
10:55 AM 51.8 °F - 37.4 °F 58% 30.07 in 10.0 mi WSW 9.2 mph - N/A   Overcast
11:15 AM 51.8 °F - 37.4 °F 58% 30.06 in 10.0 mi WSW 3.5 mph - N/A   Overcast
11:35 AM 51.8 °F - 37.4 °F 58% 30.06 in 10.0 mi West 5.8 mph - N/A   Overcast
11:55 AM 53.6 °F - 39.2 °F 58% 30.06 in 10.0 mi West 6.9 mph - N/A   Mostly Cloudy
12:15 PM 53.6 °F - 37.4 °F 54% 30.06 in 10.0 mi West 8.1 mph - N/A   Scattered Clouds
12:35 PM 51.8 °F - 39.2 °F 62% 30.06 in 10.0 mi WNW 4.6 mph - N/A   Mostly Cloudy
12:55 PM 53.6 °F - 37.4 °F 54% 30.05 in 10.0 mi WNW 11.5 mph 16.1 mph N/A   Overcast
1:15 PM 53.6 °F - 37.4 °F 54% 30.05 in 10.0 mi West 5.8 mph - N/A   Overcast
1:35 PM 53.6 °F - 37.4 °F 54% 30.04 in 10.0 mi WNW 6.9 mph - N/A   Overcast
1:55 PM 53.6 °F - 37.4 °F 54% 30.03 in 10.0 mi WNW 8.1 mph - N/A   Overcast
2:15 PM 55.4 °F - 39.2 °F 54% 30.03 in 10.0 mi WNW 9.2 mph - N/A   Overcast
2:35 PM 55.4 °F - 39.2 °F 54% 30.03 in 10.0 mi NW 8.1 mph - N/A   Overcast
2:55 PM 55.4 °F - 39.2 °F 54% 30.03 in 10.0 mi WNW 8.1 mph - N/A   Mostly Cloudy
3:15 PM 55.4 °F - 37.4 °F 51% 30.04 in 10.0 mi WNW 8.1 mph - N/A   Overcast
3:35 PM 55.4 °F - 37.4 °F 51% 30.04 in 10.0 mi WNW 8.1 mph - N/A   Overcast
3:55 PM 55.4 °F - 39.2 °F 54% 30.04 in 10.0 mi WNW 8.1 mph - N/A   Overcast
4:15 PM 55.4 °F - 39.2 °F 54% 30.04 in 10.0 mi NW 3.5 mph - N/A   Overcast
4:35 PM 55.4 °F - 39.2 °F 54% 30.04 in 10.0 mi Calm Calm - N/A   Overcast
4:55 PM 53.6 °F - 39.2 °F 58% 30.05 in 10.0 mi North 8.1 mph - N/A   Overcast
5:15 PM 53.6 °F - 39.2 °F 58% 30.05 in 10.0 mi North 6.9 mph - N/A   Overcast
5:35 PM 53.6 °F - 39.2 °F 58% 30.06 in 10.0 mi NNE 8.1 mph - N/A   Overcast
5:55 PM 53.6 °F - 41.0 °F 62% 30.06 in 10.0 mi NNE 5.8 mph - N/A   Overcast
6:15 PM 53.6 °F - 41.0 °F 62% 30.06 in 10.0 mi Calm Calm - N/A   Overcast
6:35 PM 51.8 °F - 41.0 °F 67% 30.07 in 10.0 mi NE 5.8 mph - N/A   Overcast
6:55 PM 51.8 °F - 42.8 °F 71% 30.08 in 10.0 mi ENE 6.9 mph - N/A   Overcast
7:15 PM 51.8 °F - 41.0 °F 67% 30.08 in 10.0 mi ENE 8.1 mph - N/A   Overcast
7:35 PM 51.8 °F - 41.0 °F 67% 30.08 in 10.0 mi East 6.9 mph - N/A   Overcast
7:55 PM 51.8 °F - 42.8 °F 71% 30.09 in 10.0 mi ENE 8.1 mph - N/A   Overcast
8:15 PM 51.8 °F - 42.8 °F 71% 30.09 in 10.0 mi East 5.8 mph - N/A   Overcast
8:35 PM 51.8 °F - 41.0 °F 67% 30.08 in 10.0 mi Calm Calm - N/A   Overcast
8:55 PM 50.0 °F - 41.0 °F 71% 30.08 in 10.0 mi Calm Calm - N/A   Scattered Clouds
9:15 PM 48.2 °F - 42.8 °F 82% 30.09 in 10.0 mi NE 4.6 mph - N/A   Clear
9:35 PM 46.4 °F - 42.8 °F 87% 30.09 in 10.0 mi Calm Calm - N/A   Clear
9:55 PM 46.4 °F - 41.0 °F 81% 30.09 in 10.0 mi Calm Calm - N/A   Clear
10:15 PM 46.4 °F - 41.0 °F 81% 30.10 in 10.0 mi Calm Calm - N/A   Clear
10:35 PM 46.4 °F - 41.0 °F 81% 30.10 in 10.0 mi Calm Calm - N/A   Clear
10:55 PM 44.6 °F - 39.2 °F 81% 30.10 in 10.0 mi Calm Calm - N/A   Clear
11:15 PM 42.8 °F - 39.2 °F 87% 30.10 in 10.0 mi Calm Calm - N/A   Clear
11:35 PM 44.6 °F 41.4 °F 39.2 °F 81% 30.10 in 10.0 mi NE 5.8 mph - N/A   Clear
11:55 PM 44.6 °F 43.1 °F 39.2 °F 81% 30.10 in 10.0 mi NNE 3.5 mph - N/A   Clear